Regional Weather Roundup
Issued by NWS Kansas City/Pleasant Hill, MO

Home | Current Version | Previous Version | Text Only | Print | Product List | Glossary On
Versions: 1 2 3 4 5 6 7 8 9 10 11 12 13 14 15 16 17 18 19 20 21 22 23 24 25 26 27 28 29 30 31 32 33 34 35 36 37 38 39 40 41 42 43 44 45 46 47 48 49 50
000
ASUS43 KEAX 240410
RWREAX

WEATHER ROUNDUP FOR EASTERN KANSAS AND NORTHWEST MISSOURI
NATIONAL WEATHER SERVICE KANSAS CITY/PLEASANT HILL MO
1100 PM CDT FRI JUN 23 2017

KSZ040-057-103>105-MOZ028-029-037-043-240500-
...KANSAS CITY METROPOLITAN AREA...

CITY           SKY/WX    TMP DP  RH WIND       PRES   REMARKS
K.C. INTL      CLEAR     66  54  65 NW5       30.08R
K.C. DOWNTOWN  CLEAR     71  54  54 CALM      30.07R
LEES SUMMIT    CLEAR     68  54  60 NW7       30.08R
OLATHE - IXD   CLEAR     63  55  75 N7        30.09R
OLATHE - OJC   CLEAR     68  55  63 N6        30.08R
LAWRENCE       CLEAR     62  60  93 CALM      30.08R

$$

MOZ001>008-011>017-020>025-030>033-038>040-044>046-053-054-240500-
...NORTHERN AND CENTRAL MISSOURI...

CITY           SKY/WX    TMP DP  RH WIND       PRES   REMARKS
ST. JOSEPH     CLEAR     63  56  78 CALM      30.07R
MOSBY          CLEAR     64  55  72 CALM      30.07R
WARRENSBURG    CLEAR     64  54  68 W3        30.06R
WHITEMAN AFB   CLEAR     67  56  68 NW9       30.05R
CLINTON        CLEAR     66  54  63 NW7       30.06R
SEDALIA        CLEAR     66  57  72 NW6       30.06R
WARSAW         NOT AVBL
CHILLICOTHE      N/A     67  55  65 VRB3      30.06R
KIRKSVILLE     CLEAR     63  55  75 NW7       30.03R

$$

MOZ041-047>049-056>058-063>065-088>090-097-240500-
...EASTERN AND SOUTHERN MISSOURI...

CITY           SKY/WX    TMP DP  RH WIND       PRES   REMARKS
ST. LOUIS INTL CLOUDY    75  54  47 NW8       29.96R
SPIRIT OF STL  CLEAR     72  56  57 NW10      29.95R
COLUMBIA       CLEAR     70  55  59 NW10      30.02R
JEFFERSON CITY CLEAR     72  53  51 NW6       30.00R
ROLLA          PTCLDY    66  53  63 NW6       30.00R
OSAGE BEACH    CLEAR     68  52  56 VRB6      30.03R
SPRINGFIELD    CLEAR     68  57  68 N9        30.03R
BRANSON        CLEAR     66  63  88 CALM      30.04R
JOPLIN         CLEAR     68  59  73 N7        30.06R
WEST PLAINS    CLOUDY    64  60  87 CALM      30.02R

$$

IAZ060-094-KSZ022-034>040-054-083-096-NEZ052-066-093-240500-
...KANSAS...SOUTHEAST NEBRASKA AND IOWA...

CITY           SKY/WX    TMP DP  RH WIND       PRES   REMARKS
TOPEKA         CLEAR     67  59  75 CALM      30.09R
MANHATTAN      CLEAR     64  53  67 CALM      30.11R
EMPORIA        CLOUDY    66  55  67 CALM      30.10R
CHANUTE        CLEAR     69  54  58 CALM      30.08R
WICHITA        CLOUDY    69  57  65 CALM      30.10R
OMAHA          CLEAR     65  48  54 W8        30.08R
LINCOLN        CLEAR     59  51  75 NW3       30.12R
FALLS CITY     CLEAR     63  54  72 NW6       30.08R
LAMONI         CLEAR     60  53  77 W6        30.06R
DES MOINES     PTCLDY    67  50  54 NW10      30.02R

$$




USA.gov is the U.S. government's official web portal to all federal, state and local government web resources and services.